#timestamp,LO_Frequency,Hit,StdDev 
1584730815.7,286047000.4,N
1584730835.5,286047000.9,N
1584730855.4,286046998.2,N
1584730875.2,286047000.7,N
1584730895.1,286047002.5,N
1584730896.0,286047002.5,N
1584730915.8,286047002.8,N
1584730935.6,286047000.6,N
1584730955.5,286047000.9,N
1584730975.3,286047002.2,N
1584730995.2,286047003.8,N
1584731015.9,286047004.4,N
1584731035.7,286047002.0,N
1584731055.6,286047002.5,N
1584731075.4,286046999.9,N
1584731095.2,286047000.2,N
1584731115.1,286047000.3,N
1584731116.0,286047000.3,N
1584731135.8,286047002.1,N
1584731155.7,286047002.6,N
1584731175.5,286047000.3,N
1584731195.3,286047000.3,N
1584731245.2,286046999.8,E
1584731255.1,286047000.3,N
1584731275.9,286047000.6,P
1584731295.7,286047001.4,P
1584731315.5,286047002.5,Y
1584731335.4,286047000.2,P
1584731355.2,286047002.1,P
1584731375.1,286047001.4,N
1584731376.0,286047001.4,N
1584731395.8,286047003.5,Y
1584731415.6,286047001.8,P
1584731435.5,286047000.1,N
1584731455.3,286047002.8,P
1584731475.2,286046998.4,N
1584731495.9,286046998.9,N
1584731515.7,286046999.6,N
1584731535.6,286046997.3,N
1584731555.4,286047001.2,N
1584731575.2,286046999.3,N
1584731595.1,286046999.2,N
1584731596.0,286046999.2,N
1584731615.8,286046998.3,N
1584731635.7,286047000.3,N
1584731655.5,286047000.5,N
1584731675.3,286046998.9,N
1584731695.2,286046996.8,N
1584731715.0,286046996.8,N
1584731715.9,286046996.8,N
1584731735.8,286046998.8,N
1584731755.6,286046999.0,N
1584731775.4,286047000.3,N
1584731795.3,286046998.9,N
1584731815.1,286046999.8,N
1584731835.8,286046998.5,N
1584731855.7,286046998.7,N
1584731875.5,286047001.0,N
1584731895.4,286047000.2,N
1584731915.2,286047000.1,N
1584731935.0,286047001.0,N
1584731935.9,286047001.0,N
1584731955.8,286047000.9,N
1584731975.6,286046998.3,N
1584731995.5,286047001.0,N
1584732015.3,286047001.2,N
1584732035.1,286047000.8,N
1584732055.9,286047000.9,N
1584732075.7,286046998.8,N
1584732095.6,286046999.5,N
1584732115.4,286046999.1,N
1584732135.2,286046999.0,N
1584732155.1,286046998.4,N
1584732156.0,286046998.4,N
1584732175.8,286047002.7,N
1584732195.6,286047000.8,N
1584732215.5,286046999.3,N
1584732235.3,286046998.7,N
1584732255.2,286046999.4,N
1584732275.9,286046998.3,N
1584732295.8,286047001.0,N
1584732315.6,286046998.7,N
1584732335.4,286046999.8,N
1584732355.3,286046998.2,N
1584732375.1,286046999.1,N
1584732395.8,286046999.4,N
1584732415.7,286046998.8,N
1584732435.5,286046999.1,N
1584732455.4,286046999.3,N
1584732475.2,286046995.1,Y
1584732495.0,286046999.1,P
1584732495.9,286046999.1,P
1584732515.8,286046998.6,P
1584732535.6,286047001.9,Y
1584732555.5,286047001.8,P
1584732575.3,286046999.3,N
1584732595.1,286047002.7,N
1584732615.9,286047000.3,N
1584732635.7,286046998.1,N
1584732655.6,286046998.2,N
1584732675.4,286047001.1,N
1584732695.2,286047000.6,N
1584732715.1,286047001.6,N
1584732716.0,286047001.6,N
1584732735.8,286047002.4,N
1584732755.7,286047002.0,N
1584732775.5,286046999.9,N
1584732795.3,286046998.8,N
1584732815.2,286046996.6,N
1584732835.0,286046998.6,N
1584732835.9,286046998.6,N
1584732855.7,286046999.2,N
1584732875.6,286046994.9,Y
1584732895.4,286046996.1,P
1584732915.3,286046995.7,N
1584732935.1,286046995.4,N
1584732955.8,286046995.2,N
1584732975.7,286046997.9,N
1584732995.5,286046995.8,N
1584733015.4,286046997.9,N
1584733035.2,286046996.1,N
1584733055.0,286046993.8,Y
1584733055.9,286046993.8,P
1584733075.8,286046994.9,P
1584733095.6,286046995.7,P
1584733115.5,286046996.1,Y
1584733135.3,286046999.9,P
1584733155.1,286047001.2,N
1584733175.9,286047000.7,N
1584733195.7,286047001.2,N
1584733215.5,286047002.8,N
1584733235.4,286047002.7,N
1584733255.2,286047000.1,N
1584733275.1,286047000.4,N
1584733276.0,286047000.4,N
1584733295.8,286047001.0,N
1584733315.6,286046998.2,N
1584733335.5,286046996.9,N
1584733355.3,286046999.0,N
1584733375.2,286046996.6,N
1584733395.9,286046999.1,N
1584733415.7,286046998.5,N
1584733435.6,286046996.9,N
1584733455.4,286046999.2,N
1584733475.2,286046999.1,N
1584733495.1,286046996.5,N
1584733496.0,286046996.5,N
1584733515.8,286047001.0,N
1584733535.7,286047000.3,N
1584733555.5,286047000.2,N
1584733575.3,286046998.4,N
1584733595.2,286046996.5,N
1584733615.0,286046997.8,N
1584733615.9,286046997.8,N
1584733635.8,286046995.5,N
1584733655.6,286046996.6,N
1584733675.4,286046999.2,N
1584733695.3,286046997.0,N
1584733715.1,286046998.9,N
1584733735.8,286046996.5,N
1584733755.7,286046996.9,N
1584733775.5,286046997.0,N
1584733795.4,286046998.5,N
1584733815.2,286046997.1,N
1584733835.0,286046997.0,N
1584733835.9,286046997.0,N
1584733855.8,286046997.0,N
1584733875.6,286046997.9,N
1584733895.5,286046999.3,N
1584733915.3,286047001.0,N
1584733935.1,286046998.2,N
1584733955.9,286047000.3,N
1584733975.7,286046999.9,N
1584733995.5,286047000.8,N
1584734015.4,286047000.1,N
1584734035.2,286046998.9,N
1584734055.1,286046999.8,N
1584734056.0,286046999.8,N
1584734075.8,286047002.4,N
1584734095.6,286047004.3,N
1584734115.5,286047003.2,N
1584734135.3,286047004.2,N
1584734155.1,286047001.6,N
1584734175.9,286047003.8,N
1584734195.7,286047001.4,N
1584734215.6,286047004.4,N
1584734235.4,286047002.2,N
1584734255.2,286047002.2,N
1584734275.1,286047000.0,N
1584734276.0,286047000.0,N
1584734295.8,286046998.6,N
1584734315.7,286047001.1,N
1584734335.5,286047000.5,N
1584734355.3,286047002.2,N
1584734375.2,286047003.6,N
1584734395.0,286047003.3,N
1584734395.9,286047003.3,N
